EA2DUR Weather Reports


time (UTC)temp
C
wind
direction
speed
KPH
gust
KPH
rain 1hr
cm
rain 24hr
cm
rain mn
cm
humidity
%
barometer
mb
20260502233009 12 209 8.0 12.9 0.00 0.00 0.00 94 947.2
20260502231514 12 145 4.8 16.1 0.00 0.00 0.00 94 947.2
20260502230008 12 198 4.8 11.3 0.00 0.00 0.00 94 947.2
20260502224503 12 159 6.4 12.9 0.00 0.00 0.00 94 947.3
20260502223003 12 182 6.4 12.9 0.00 0.00 0.00 94 947.2
20260502221600 12 117 4.8 11.3 0.00 0.00 0.00 94 947.0
20260502220104 12 148 4.8 12.9 0.00 0.00 0.00 94 947.0
20260502214556 12 134 4.8 14.5 0.00 0.00 0.00 94 946.9
20260502213055 12 185 8.0 16.1 0.00 0.00 0.00 94 946.9
20260502211555 12 190 4.8 12.9 0.00 0.00 0.00 95 946.9
20260502210104 12 161 3.2 8.0 0.00 0.00 0.00 95 947.0
20260502204553 12 186 3.2 8.0 0.00 0.00 0.00 95 946.8
20260502203053 12 188 3.2 9.7 0.00 0.00 0.00 95 946.8
20260502201559 12 138 6.4 11.3 0.00 0.00 0.00 94 946.7
20260502200059 12 185 6.4 11.3 0.00 0.00 0.00 94 946.9
20260502194555 12 144 3.2 14.5 0.00 0.00 0.00 93 946.6
20260502193050 12 131 11.3 16.1 0.00 0.00 0.00 94 946.4
20260502191553 12 157 3.2 14.5 0.00 0.00 0.00 94 946.2
20260502184556 12 115 12.9 17.7 0.00 0.00 0.00 95 946.4
20260502183046 13 118 11.3 16.1 0.00 0.00 0.00 95 946.6
20260502181543 13 170 3.2 8.0 0.00 0.00 0.00 95 946.7
20260502180104 13 161 3.2 11.3 0.00 0.00 0.00 94 946.6
20260502163037 13 157 3.2 9.7 0.00 0.00 0.00 92 946.4
20260502161536 13 165 3.2 9.7 0.00 0.00 0.00 91 946.6
20260502151534 13 173 4.8 11.3 0.00 0.00 0.00 92 946.9
20260502123023 15 158 11.3 24.1 0.00 0.00 0.00 84 947.7
20260502121524 15 171 8.0 29.0 0.00 0.00 0.00 87 948.0
20260502114520 14 138 11.3 25.7 0.00 0.00 0.00 91 947.9
20260502113018 14 138 14.5 32.2 0.00 0.00 0.00 91 948.3
20260502111514 14 142 16.1 32.2 0.00 0.00 0.00 92 948.8
20260502110012 14 95 14.5 29.0 0.00 0.00 0.00 89 949.1
20260502104512 15 147 12.9 25.7 0.00 0.00 0.00 85 949.8
20260502103012 15 180 11.3 35.4 0.00 0.00 0.00 84 949.8
20260502101512 15 171 11.3 35.4 0.00 0.00 0.00 85 949.4
20260502091507 14 183 16.1 29.0 0.00 0.00 0.00 88 949.6
20260502080109 14 183 14.5 33.8 0.00 0.00 0.00 87 949.8
20260502070057 13 162 16.1 35.4 0.00 0.00 0.00 87 949.7
20260502064600 13 178 11.3 30.6 0.00 0.00 0.00 88 949.7
20260502063100 13 159 11.3 27.4 0.00 0.00 0.00 88 949.8
20260502061553 13 138 16.1 35.4 0.00 0.00 0.00 88 949.6
20260502054548 13 169 14.5 38.6 0.00 0.00 0.00 88 949.2
20260502053053 13 149 20.9 49.9 0.00 0.00 0.00 89 949.3
20260502051554 13 198 20.9 41.8 0.00 0.00 0.00 89 949.2
20260502050038 13 162 19.3 41.8 0.00 0.00 0.00 89 949.5
20260502044540 13 155 22.5 40.2 0.00 0.00 0.00 89 949.8
20260502043035 13 206 22.5 33.8 0.00 0.00 0.00 89 949.6
20260502041537 13 171 12.9 29.0 0.00 0.00 0.00 88 949.7
20260502040031 13 108 17.7 30.6 0.00 0.00 0.00 88 949.9
20260502034533 13 137 16.1 33.8 0.00 0.00 0.00 87 950.1
20260502033031 13 180 12.9 27.4 0.00 0.00 0.00 87 950.0
20260502031529 13 150 17.7 33.8 0.00 0.00 0.00 86 949.8
20260502030027 13 186 14.5 27.4 0.00 0.00 0.00 85 949.8
20260502024525 14 128 14.5 33.8 0.00 0.00 0.00 84 949.8
20260502023023 14 99 9.7 32.2 0.00 0.00 0.00 84 950.0
20260502021518 14 144 14.5 33.8 0.00 0.00 0.00 83 950.3
20260502020020 14 175 19.3 32.2 0.00 0.00 0.00 83 950.6
20260502014513 14 140 16.1 35.4 0.00 0.00 0.00 82 950.6
20260502013011 15 168 16.1 29.0 0.00 0.00 0.00 82 950.6
20260502011533 15 123 14.5 33.8 0.00 0.00 0.00 81 950.6
20260502010007 15 147 9.7 29.0 0.00 0.00 0.00 81 950.6
20260502004505 15 172 12.9 29.0 0.00 0.00 0.00 80 950.7
20260502003005 15 147 9.7 27.4 0.00 0.00 0.00 80 950.8
20260502001600 15 173 9.7 19.3 0.00 0.00 0.00 79 951.0
20260502000113 15 151 11.3 30.6 0.00 0.00 0.00 79 951.1
20260501234555 15 178 16.1 27.4 0.00 0.00 0.00 80 951.2